Flag for Poland Weather past 2 weeks in Tarnów, Poland

Now
54 °F

Cool.


Feels Like: 54 °F
Forecast: 55 / 65 °F
Wind: 2 mph from Northeast

Location: Tarnow

Current Time: May 25, 2015 at 7:51:47 AM

Latest Report: May 25, 2015 at 7:00 AM


Visibility: 7 mi

Pressure: 29.96 "Hg

Humidity: 92%

Dew point: 52 °F

Location of TarnówLocation

Historic Weather in Tarnów — Graph

°F

Tarnów temperature yesterday

Maximum temperature yesterday: 55 °F (at 6:00 PM)
Minimum temperature yesterday: 51 °F (at 7:00 AM)
Average temperature yesterday: 53 °F

Past Weeks' High & Low Weather Summary

 TemperatureHumidityPressure
High80 °F (May 19, 3:00 PM)98% (May 12, 6:00 AM)30.40 "Hg (May 12, 6:00 AM)
Low36 °F (May 15, 5:00 AM)27% (May 19, 2:00 PM)29.72 "Hg (May 14, 1:00 PM)
Average56 °F73%30.05 "Hg
* Reported May 10 6:00 AM — May 25 6:00 AM, Tarnów, Weather by CustomWeather, © 2015

Note: Actual official high and low records may vary slightly from our data, if they occured in-between our weather recording intervals... More about our weather records

Advertising

Tarnów weather history for previous 24 hours

 ConditionsComfort  
Time TempWeatherWind HumidityBarometerVisibility
6:00 AM
Mon, May 25
54 °FFog.1 mph93%29.97 "Hg6 mi
4:00 AM54 °FCool.1 mph92%29.99 "Hg9 mi
3:00 AM53 °FCool.1 mph93%30.00 "Hg9 mi
2:00 AM54 °FFog.1 mph92%30.02 "Hg6 mi
1:00 AM54 °FFog.1 mph93%30.03 "Hg4 mi
12:00 AM53 °FFog.No wind95%30.05 "Hg3 mi
10:00 PM
Sun, May 24
54 °FFog.No wind94%30.06 "Hg3 mi
9:00 PM54 °FFog.1 mph93%30.06 "Hg5 mi
8:00 PM55 °FCool.No wind91%30.06 "Hg7 mi
7:00 PM55 °FCool.1 mph88%30.06 "Hg19 mi
6:00 PM55 °FCool.1 mph87%30.07 "Hg22 mi
5:00 PM55 °FCool.2 mph87%30.08 "Hg8 mi
4:00 PM55 °FCool.2 mph89%30.09 "Hg7 mi
3:00 PM54 °FCool.2 mph88%30.10 "Hg10 mi
2:00 PM54 °FCool.3 mph88%30.09 "Hg12 mi
1:00 PM53 °FCool.2 mph92%30.09 "Hg9 mi
12:00 PM53 °FCool.2 mph93%30.09 "Hg8 mi
11:00 AM52 °FFog.2 mph94%30.09 "Hg4 mi
10:00 AM52 °FFog.2 mph96%30.08 "Hg2 mi
9:00 AM52 °FFog.2 mph97%30.07 "Hg1 mi
8:00 AM51 °FCool.2 mph97%30.05 "Hg1 mi
7:00 AM51 °FCool.2 mph96%30.04 "Hg2 mi
Weather by CustomWeather, © 2015

See weather overviewHow to use our weather pages